SWA2633 KBNA-KPBI

Flight info

Callsign SWA2633
Flight time 1h 45m
Altitude 37000
Route FLAME4 GENDE ACORI VUUDU1
Aircraft B737/M-SADE2E3GIJ4RWZ/LB1D1

Departure

Time 2026-05-04 18:43
Airport Nashville International Airport (KBNA)

Arrival

Time 2026-05-04 20:28
Airport Palm Beach International Airport (KPBI)
Time Latitude Longitude Altitude Speed Heading
2026-05-04 18:20 36.12931 -86.66753 568 ft 0 kts 41°
2026-05-04 18:34 36.12931 -86.66754 568 ft 1 kts 41°
2026-05-04 18:34 36.12913 -86.66774 569 ft 4 kts 43°
2026-05-04 18:35 36.12899 -86.66792 567 ft 2 kts 62°
2026-05-04 18:35 36.12896 -86.66805 568 ft 2 kts 107°
2026-05-04 18:35 36.12901 -86.66818 572 ft 2 kts 127°
2026-05-04 18:35 36.12908 -86.66828 568 ft 2 kts 131°
2026-05-04 18:36 36.12908 -86.66829 568 ft 0 kts 132°
2026-05-04 18:38 36.12889 -86.66802 571 ft 12 kts 131°
2026-05-04 18:38 36.12804 -86.66737 570 ft 15 kts 172°
2026-05-04 18:38 36.12711 -86.66778 572 ft 14 kts 221°
2026-05-04 18:38 36.12639 -86.66856 569 ft 12 kts 224°
2026-05-04 18:39 36.12664 -86.66951 570 ft 18 kts 310°
2026-05-04 18:39 36.12765 -86.67099 568 ft 23 kts 310°
2026-05-04 18:39 36.12861 -86.67237 571 ft 15 kts 289°
2026-05-04 18:39 36.12802 -86.67334 573 ft 14 kts 224°
2026-05-04 18:40 36.12733 -86.67413 573 ft 13 kts 222°
2026-05-04 18:40 36.12656 -86.67473 577 ft 13 kts 208°
2026-05-04 18:40 36.12581 -86.67531 575 ft 13 kts 222°
2026-05-04 18:40 36.12513 -86.67610 579 ft 13 kts 223°
2026-05-04 18:41 36.12447 -86.67672 579 ft 11 kts 201°
2026-05-04 18:41 36.12364 -86.67714 578 ft 12 kts 226°
2026-05-04 18:41 36.12371 -86.67809 577 ft 11 kts 290°
2026-05-04 18:41 36.12396 -86.67901 575 ft 11 kts 288°
2026-05-04 18:42 36.12370 -86.67982 575 ft 15 kts 202°
2026-05-04 18:42 36.12160 -86.68067 572 ft 63 kts 198°
2026-05-04 18:42 36.11532 -86.68319 580 ft 125 kts 198°
2026-05-04 18:42 36.10546 -86.68727 652 ft 167 kts 199°
2026-05-04 18:43 36.09486 -86.69198 1462 ft 157 kts 200°
2026-05-04 18:43 36.08422 -86.69609 2119 ft 163 kts 196°
2026-05-04 18:43 36.07295 -86.69987 2643 ft 179 kts 196°
2026-05-04 18:43 36.06012 -86.70415 2998 ft 200 kts 196°
2026-05-04 18:44 36.04582 -86.70907 3252 ft 227 kts 199°
2026-05-04 18:44 36.03547 -86.71302 3423 ft 245 kts 199°
2026-05-04 18:44 36.01296 -86.72144 4384 ft 256 kts 198°
2026-05-04 18:44 35.99594 -86.72796 5294 ft 257 kts 200°
2026-05-04 18:45 35.97884 -86.73471 6145 ft 260 kts 199°
2026-05-04 18:45 35.96142 -86.74138 7007 ft 264 kts 199°
2026-05-04 18:45 35.94368 -86.74774 7853 ft 269 kts 194°
2026-05-04 18:45 35.92493 -86.75038 8724 ft 274 kts 186°
2026-05-04 18:46 35.90575 -86.75156 9620 ft 277 kts 185°
2026-05-04 18:46 35.88639 -86.75253 10480 ft 282 kts 185°
2026-05-04 18:46 35.86588 -86.75365 10701 ft 311 kts 185°
2026-05-04 18:46 35.84382 -86.75474 11297 ft 321 kts 185°
2026-05-04 18:47 35.82130 -86.75614 12132 ft 325 kts 186°
2026-05-04 18:47 35.79864 -86.75773 12933 ft 329 kts 187°
2026-05-04 18:47 35.77561 -86.75939 13690 ft 334 kts 187°
2026-05-04 18:47 35.75209 -86.76109 14415 ft 341 kts 187°
2026-05-04 18:48 35.72822 -86.76281 15185 ft 347 kts 187°
2026-05-04 18:48 35.70394 -86.76452 15946 ft 352 kts 187°
2026-05-04 18:48 35.67926 -86.76624 16709 ft 358 kts 187°
2026-05-04 18:48 35.65454 -86.76798 17430 ft 363 kts 187°
2026-05-04 18:49 35.62911 -86.76977 18125 ft 369 kts 187°
2026-05-04 18:49 35.60333 -86.77158 18801 ft 374 kts 188°
2026-05-04 18:49 35.57708 -86.77341 19480 ft 379 kts 188°
2026-05-04 18:49 35.55070 -86.77525 20212 ft 382 kts 188°
2026-05-04 18:50 35.52399 -86.77709 20908 ft 386 kts 188°
2026-05-04 18:50 35.49701 -86.77891 21569 ft 390 kts 188°
2026-05-04 18:50 35.46975 -86.78075 22201 ft 394 kts 188°
2026-05-04 18:50 35.44223 -86.78261 22835 ft 398 kts 188°
2026-05-04 18:51 35.41449 -86.78448 23351 ft 404 kts 188°
2026-05-04 18:51 35.38623 -86.78639 23918 ft 408 kts 188°
2026-05-04 18:51 35.35783 -86.78829 24558 ft 409 kts 188°
2026-05-04 18:51 35.32930 -86.79020 25145 ft 412 kts 189°
2026-05-04 18:52 35.30091 -86.79210 25630 ft 416 kts 188°
2026-05-04 18:52 35.27184 -86.79406 26104 ft 420 kts 189°
2026-05-04 18:52 35.24219 -86.79604 26627 ft 423 kts 189°
2026-05-04 18:52 35.21311 -86.79798 27160 ft 425 kts 189°
2026-05-04 18:53 35.18354 -86.79995 27664 ft 427 kts 189°
2026-05-04 18:53 35.15379 -86.80194 28078 ft 430 kts 189°
2026-05-04 18:53 35.12372 -86.80395 28484 ft 434 kts 189°
2026-05-04 18:53 35.09352 -86.80597 28943 ft 436 kts 189°
2026-05-04 18:54 35.06314 -86.80800 29370 ft 439 kts 189°
2026-05-04 18:54 35.03257 -86.81004 29754 ft 442 kts 189°
2026-05-04 18:54 35.00174 -86.81209 30136 ft 444 kts 189°
2026-05-04 18:54 34.97082 -86.81414 30509 ft 447 kts 189°
2026-05-04 18:55 34.93968 -86.81621 30868 ft 449 kts 189°
2026-05-04 18:55 34.87693 -86.82038 31533 ft 453 kts 189°
2026-05-04 18:55 34.84537 -86.82247 31876 ft 454 kts 189°
2026-05-04 18:56 34.81381 -86.82428 32311 ft 455 kts 185°
2026-05-04 18:56 34.78214 -86.81919 32688 ft 465 kts 171°
2026-05-04 18:56 34.75090 -86.80895 33131 ft 465 kts 169°
2026-05-04 18:56 34.72022 -86.79824 33537 ft 464 kts 169°
2026-05-04 18:57 34.68918 -86.78730 33874 ft 464 kts 169°
2026-05-04 18:57 34.65822 -86.77654 34216 ft 463 kts 169°
2026-05-04 18:57 34.62721 -86.76596 34549 ft 462 kts 170°
2026-05-04 18:57 34.59627 -86.75558 34856 ft 462 kts 170°
2026-05-04 18:58 34.56527 -86.74531 35132 ft 462 kts 170°
2026-05-04 18:58 34.53426 -86.73511 35442 ft 461 kts 171°
2026-05-04 18:58 34.50333 -86.72497 35739 ft 461 kts 171°
2026-05-04 18:58 34.47231 -86.71482 35995 ft 461 kts 171°
2026-05-04 18:59 34.44134 -86.70469 36226 ft 461 kts 171°
2026-05-04 18:59 34.41029 -86.69454 36417 ft 463 kts 171°
2026-05-04 18:59 34.37916 -86.68437 36598 ft 464 kts 171°
2026-05-04 18:59 34.34805 -86.67420 36861 ft 463 kts 171°
2026-05-04 19:00 34.31699 -86.66404 37083 ft 463 kts 171°
2026-05-04 19:00 34.28583 -86.65387 37056 ft 463 kts 171°
2026-05-04 19:00 34.22456 -86.63383 37056 ft 450 kts 171°
2026-05-04 19:01 34.16402 -86.61412 37075 ft 451 kts 171°
2026-05-04 19:01 34.10325 -86.59443 37084 ft 453 kts 171°
2026-05-04 19:02 34.04258 -86.57476 37078 ft 455 kts 171°
2026-05-04 19:02 33.98135 -86.55490 37073 ft 456 kts 171°
2026-05-04 19:03 33.91992 -86.53501 37083 ft 457 kts 171°
2026-05-04 19:03 33.85844 -86.51514 37083 ft 457 kts 172°
2026-05-04 19:04 33.79696 -86.49530 37080 ft 458 kts 172°
2026-05-04 19:04 33.73545 -86.47547 37082 ft 457 kts 172°
2026-05-04 19:05 33.67404 -86.45572 37085 ft 456 kts 172°
2026-05-04 19:05 33.61274 -86.43602 37074 ft 456 kts 172°
2026-05-04 19:06 33.55152 -86.41639 37083 ft 455 kts 172°
2026-05-04 19:06 33.49039 -86.39682 37082 ft 455 kts 172°
2026-05-04 19:07 33.42922 -86.37726 37094 ft 455 kts 172°
2026-05-04 19:07 33.36804 -86.35771 37097 ft 455 kts 172°
2026-05-04 19:08 33.30674 -86.33817 37073 ft 456 kts 172°
2026-05-04 19:08 33.24540 -86.31865 37082 ft 457 kts 172°
2026-05-04 19:09 33.18394 -86.29911 37087 ft 458 kts 172°
2026-05-04 19:09 33.12228 -86.27954 37081 ft 459 kts 173°
2026-05-04 19:10 33.06043 -86.25993 37082 ft 461 kts 173°
2026-05-04 19:10 32.99883 -86.24043 37087 ft 462 kts 173°
2026-05-04 19:11 32.93661 -86.22076 37083 ft 463 kts 173°
2026-05-04 19:11 32.87421 -86.20106 37078 ft 465 kts 173°
2026-05-04 19:12 32.78038 -86.17149 37076 ft 465 kts 173°
2026-05-04 19:13 32.71783 -86.15182 37069 ft 465 kts 174°
2026-05-04 19:13 32.65518 -86.13213 37061 ft 465 kts 174°
2026-05-04 19:14 32.59266 -86.11250 37060 ft 464 kts 174°
2026-05-04 19:14 32.53024 -86.09295 37064 ft 464 kts 174°
2026-05-04 19:15 32.46784 -86.07344 37063 ft 463 kts 174°
2026-05-04 19:15 32.40550 -86.05399 37066 ft 463 kts 174°
2026-05-04 19:16 32.34360 -86.03471 37066 ft 463 kts 174°
2026-05-04 19:16 32.28124 -86.01527 37072 ft 463 kts 175°
2026-05-04 19:17 32.21900 -85.99591 37064 ft 463 kts 175°
2026-05-04 19:17 32.15673 -85.97658 37071 ft 463 kts 175°
2026-05-04 19:18 32.09448 -85.95727 37078 ft 463 kts 175°
2026-05-04 19:18 32.03217 -85.93797 37098 ft 463 kts 175°
2026-05-04 19:19 31.96980 -85.91869 37099 ft 464 kts 175°
2026-05-04 19:19 31.90738 -85.89942 37091 ft 464 kts 175°
2026-05-04 19:20 31.84494 -85.88014 37083 ft 464 kts 175°
2026-05-04 19:20 31.79311 -85.86362 37081 ft 470 kts 168°
2026-05-04 19:20 31.76367 -85.84516 37095 ft 490 kts 148°
2026-05-04 19:21 31.73879 -85.81716 37116 ft 499 kts 138°
2026-05-04 19:21 31.69252 -85.75600 37098 ft 501 kts 136°
2026-05-04 19:22 31.64660 -85.69438 37075 ft 501 kts 137°
2026-05-04 19:22 31.60021 -85.63338 37069 ft 500 kts 137°
2026-05-04 19:23 31.55359 -85.57295 37085 ft 499 kts 137°
2026-05-04 19:23 31.50694 -85.51276 37102 ft 498 kts 137°
2026-05-04 19:24 31.46041 -85.45276 37103 ft 497 kts 137°
2026-05-04 19:24 31.41394 -85.39289 37108 ft 496 kts 137°
2026-05-04 19:25 31.36762 -85.33329 37120 ft 494 kts 138°
2026-05-04 19:25 31.32133 -85.27384 37113 ft 494 kts 138°
2026-05-04 19:26 31.27540 -85.21491 37109 ft 493 kts 138°
2026-05-04 19:26 31.22918 -85.15572 37112 ft 493 kts 138°
2026-05-04 19:27 31.18293 -85.09660 37103 ft 493 kts 138°
2026-05-04 19:27 31.13670 -85.03758 37105 ft 492 kts 138°
2026-05-04 19:28 31.09047 -84.97863 37089 ft 492 kts 138°
2026-05-04 19:28 31.04424 -84.91982 37084 ft 492 kts 138°
2026-05-04 19:29 30.99800 -84.86107 37094 ft 491 kts 138°
2026-05-04 19:29 30.95177 -84.80240 37093 ft 491 kts 138°
2026-05-04 19:30 30.90558 -84.74387 37103 ft 490 kts 138°
2026-05-04 19:30 30.85940 -84.68547 37096 ft 491 kts 138°
2026-05-04 19:31 30.81317 -84.62709 37102 ft 490 kts 138°
2026-05-04 19:31 30.76690 -84.56875 37106 ft 491 kts 138°
2026-05-04 19:32 30.72057 -84.51042 37100 ft 491 kts 138°
2026-05-04 19:32 30.67425 -84.45217 37097 ft 491 kts 138°
2026-05-04 19:33 30.62792 -84.39399 37099 ft 490 kts 138°
2026-05-04 19:33 30.58155 -84.33588 37098 ft 490 kts 138°
2026-05-04 19:34 30.53522 -84.27789 37103 ft 490 kts 138°
2026-05-04 19:34 30.48883 -84.21993 37084 ft 490 kts 138°
2026-05-04 19:35 30.44247 -84.16207 37082 ft 490 kts 138°
2026-05-04 19:35 30.39607 -84.10424 37083 ft 490 kts 138°
2026-05-04 19:36 30.34495 -84.05482 37108 ft 470 kts 158°
2026-05-04 19:36 30.28813 -84.01834 37091 ft 471 kts 159°
2026-05-04 19:37 30.23084 -83.98136 37080 ft 472 kts 158°
2026-05-04 19:37 30.17375 -83.94379 37083 ft 473 kts 158°
2026-05-04 19:38 30.11661 -83.90593 37083 ft 474 kts 158°
2026-05-04 19:38 30.05940 -83.86807 37083 ft 474 kts 158°
2026-05-04 19:39 30.00207 -83.83023 37077 ft 475 kts 158°
2026-05-04 19:39 29.94478 -83.79246 37069 ft 474 kts 158°
2026-05-04 19:40 29.88762 -83.75482 37073 ft 473 kts 158°
2026-05-04 19:40 29.83042 -83.71722 37077 ft 474 kts 158°
2026-05-04 19:41 29.77306 -83.67959 37081 ft 475 kts 158°
2026-05-04 19:41 29.71559 -83.64194 37075 ft 475 kts 158°
2026-05-04 19:42 29.65814 -83.60434 37074 ft 475 kts 158°
2026-05-04 19:42 29.60073 -83.56680 37072 ft 475 kts 158°
2026-05-04 19:43 29.54331 -83.52931 37070 ft 474 kts 158°
2026-05-04 19:43 29.48599 -83.49193 37063 ft 474 kts 158°
2026-05-04 19:44 29.42876 -83.45465 37065 ft 473 kts 158°
2026-05-04 19:44 29.37163 -83.41749 37062 ft 472 kts 158°
2026-05-04 19:45 29.31459 -83.38044 37066 ft 471 kts 158°
2026-05-04 19:45 29.25766 -83.34348 37063 ft 470 kts 157°
2026-05-04 19:46 29.20328 -83.30091 37069 ft 476 kts 149°
2026-05-04 19:46 29.15100 -83.25434 37063 ft 476 kts 149°
2026-05-04 19:47 29.09872 -83.20810 37064 ft 474 kts 149°
2026-05-04 19:47 29.04618 -83.16272 37062 ft 473 kts 150°
2026-05-04 19:48 28.99390 -83.11812 37063 ft 472 kts 150°
2026-05-04 19:48 28.94094 -83.07305 37067 ft 471 kts 150°
2026-05-04 19:49 28.88871 -83.02861 37058 ft 471 kts 150°
2026-05-04 19:49 28.83620 -82.98395 37056 ft 471 kts 150°
2026-05-04 19:50 28.78372 -82.93937 37066 ft 470 kts 150°
2026-05-04 19:50 28.73127 -82.89486 37064 ft 470 kts 150°
2026-05-04 19:51 28.67881 -82.85043 37066 ft 470 kts 150°
2026-05-04 19:51 28.62639 -82.80609 37064 ft 469 kts 150°
2026-05-04 19:52 28.57398 -82.76180 37068 ft 469 kts 150°
2026-05-04 19:52 28.52157 -82.71756 37062 ft 469 kts 151°
2026-05-04 19:53 28.46905 -82.67330 37072 ft 470 kts 151°
2026-05-04 19:53 28.44274 -82.65116 36871 ft 474 kts 151°
2026-05-04 19:53 28.41611 -82.62880 36324 ft 476 kts 150°
2026-05-04 19:53 28.38949 -82.60641 35709 ft 475 kts 151°
2026-05-04 19:54 28.36292 -82.58406 35028 ft 476 kts 151°
2026-05-04 19:54 28.33625 -82.56165 34311 ft 478 kts 151°
2026-05-04 19:54 28.30943 -82.53915 33601 ft 480 kts 151°
2026-05-04 19:54 28.28249 -82.51656 32860 ft 483 kts 151°
2026-05-04 19:55 28.25540 -82.49385 32060 ft 486 kts 150°
2026-05-04 19:55 28.22818 -82.47104 31324 ft 487 kts 150°
2026-05-04 19:55 28.20102 -82.44827 30763 ft 483 kts 150°
2026-05-04 19:55 28.17412 -82.42573 30177 ft 480 kts 150°
2026-05-04 19:56 28.14739 -82.40334 29599 ft 476 kts 150°
2026-05-04 19:56 28.12089 -82.38118 29009 ft 471 kts 150°
2026-05-04 19:56 28.09463 -82.35925 28416 ft 467 kts 150°
2026-05-04 19:56 28.06859 -82.33752 27831 ft 463 kts 149°
2026-05-04 19:57 28.04280 -82.31611 27250 ft 457 kts 152°
2026-05-04 19:57 28.01533 -82.30005 26976 ft 429 kts 169°
2026-05-04 19:57 27.98735 -82.29045 26914 ft 416 kts 171°
2026-05-04 19:57 27.95936 -82.28141 26843 ft 423 kts 171°
2026-05-04 19:58 27.93067 -82.27223 26751 ft 432 kts 171°
2026-05-04 19:58 27.90173 -82.26280 26653 ft 433 kts 170°
2026-05-04 19:58 27.87294 -82.25310 26556 ft 429 kts 170°
2026-05-04 19:58 27.84448 -82.24374 26475 ft 423 kts 170°
2026-05-04 19:59 27.81668 -82.23437 26398 ft 426 kts 170°
2026-05-04 19:59 27.78805 -82.22472 26304 ft 431 kts 170°
2026-05-04 19:59 27.75938 -82.21497 26209 ft 429 kts 170°
2026-05-04 19:59 27.73095 -82.20529 26112 ft 424 kts 170°
2026-05-04 20:00 27.70271 -82.19571 26034 ft 424 kts 170°
2026-05-04 20:00 27.67434 -82.18617 25962 ft 428 kts 170°
2026-05-04 20:00 27.64589 -82.17659 25865 ft 424 kts 170°
2026-05-04 20:00 27.61764 -82.16707 25781 ft 424 kts 170°
2026-05-04 20:01 27.58925 -82.15764 25700 ft 425 kts 170°
2026-05-04 20:01 27.56090 -82.14831 25616 ft 424 kts 170°
2026-05-04 20:01 27.53258 -82.13902 25546 ft 423 kts 170°
2026-05-04 20:01 27.50434 -82.12975 25451 ft 423 kts 170°
2026-05-04 20:02 27.47609 -82.12048 25360 ft 422 kts 170°
2026-05-04 20:02 27.44793 -82.11123 25280 ft 422 kts 170°
2026-05-04 20:02 27.41977 -82.10198 25195 ft 421 kts 170°
2026-05-04 20:02 27.39162 -82.09273 25109 ft 421 kts 170°
2026-05-04 20:03 27.36353 -82.08351 25023 ft 421 kts 170°
2026-05-04 20:03 27.33543 -82.07427 24936 ft 421 kts 170°
2026-05-04 20:03 27.30734 -82.06491 24844 ft 421 kts 169°
2026-05-04 20:03 27.27928 -82.05551 24767 ft 420 kts 169°
2026-05-04 20:04 27.25126 -82.04610 24678 ft 420 kts 169°
2026-05-04 20:04 27.22328 -82.03672 24588 ft 420 kts 169°
2026-05-04 20:04 27.19530 -82.02735 24510 ft 419 kts 169°
2026-05-04 20:04 27.16735 -82.01799 24425 ft 419 kts 169°
2026-05-04 20:05 27.13945 -82.00869 24339 ft 418 kts 169°
2026-05-04 20:05 27.11156 -81.99939 24255 ft 418 kts 169°
2026-05-04 20:05 27.08368 -81.99009 24173 ft 417 kts 169°
2026-05-04 20:05 27.05595 -81.98058 24094 ft 419 kts 165°
2026-05-04 20:06 27.03014 -81.96452 23928 ft 433 kts 146°
2026-05-04 20:06 27.00901 -81.93982 23687 ft 443 kts 134°
2026-05-04 20:06 26.98981 -81.91340 23405 ft 441 kts 133°
2026-05-04 20:06 26.97085 -81.88667 23123 ft 435 kts 133°
2026-05-04 20:07 26.95212 -81.86044 22848 ft 428 kts 133°
2026-05-04 20:07 26.93343 -81.83468 22586 ft 425 kts 134°
2026-05-04 20:07 26.91469 -81.80919 22326 ft 423 kts 134°
2026-05-04 20:07 26.89596 -81.78387 22061 ft 421 kts 134°
2026-05-04 20:08 26.87728 -81.75866 21788 ft 420 kts 134°
2026-05-04 20:08 26.86493 -81.74199 21611 ft 419 kts 134°
2026-05-04 20:08 26.84620 -81.71709 21353 ft 418 kts 134°
2026-05-04 20:08 26.82738 -81.69240 21086 ft 416 kts 135°
2026-05-04 20:09 26.80857 -81.66783 20825 ft 415 kts 135°
2026-05-04 20:09 26.78982 -81.64333 20575 ft 414 kts 135°
2026-05-04 20:09 26.77116 -81.61892 20316 ft 412 kts 135°
2026-05-04 20:09 26.75254 -81.59452 20056 ft 411 kts 135°
2026-05-04 20:10 26.73404 -81.57028 19803 ft 409 kts 135°
2026-05-04 20:10 26.71558 -81.54611 19549 ft 408 kts 135°
2026-05-04 20:10 26.69745 -81.52178 19289 ft 408 kts 129°
2026-05-04 20:10 26.68513 -81.49304 19015 ft 414 kts 107°
2026-05-04 20:11 26.68160 -81.46100 18550 ft 419 kts 88°
2026-05-04 20:11 26.68667 -81.42899 18082 ft 417 kts 75°
2026-05-04 20:11 26.69420 -81.39792 17536 ft 412 kts 73°
2026-05-04 20:11 26.70199 -81.36727 17029 ft 407 kts 73°
2026-05-04 20:12 26.70958 -81.33693 16538 ft 402 kts 74°
2026-05-04 20:12 26.71682 -81.30701 16053 ft 396 kts 75°
2026-05-04 20:12 26.72382 -81.27736 15549 ft 392 kts 75°
2026-05-04 20:12 26.73066 -81.24807 15093 ft 387 kts 75°
2026-05-04 20:13 26.73738 -81.21920 14698 ft 380 kts 75°
2026-05-04 20:13 26.74400 -81.19077 14341 ft 376 kts 75°
2026-05-04 20:13 26.75057 -81.16256 13984 ft 373 kts 75°
2026-05-04 20:13 26.75707 -81.13459 13625 ft 370 kts 75°
2026-05-04 20:14 26.76354 -81.10679 13279 ft 367 kts 75°
2026-05-04 20:14 26.76994 -81.07925 12926 ft 365 kts 75°
2026-05-04 20:14 26.77631 -81.05184 12562 ft 363 kts 75°
2026-05-04 20:14 26.78266 -81.02448 12216 ft 361 kts 75°
2026-05-04 20:15 26.78808 -80.99754 11874 ft 359 kts 83°
2026-05-04 20:15 26.79004 -80.96989 11543 ft 355 kts 89°
2026-05-04 20:15 26.79069 -80.94233 11185 ft 354 kts 89°
2026-05-04 20:15 26.79124 -80.91487 10847 ft 350 kts 89°
2026-05-04 20:16 26.79202 -80.88802 10517 ft 342 kts 88°
2026-05-04 20:16 26.79303 -80.86176 10189 ft 334 kts 88°
2026-05-04 20:16 26.79412 -80.83607 9851 ft 326 kts 88°
2026-05-04 20:16 26.79519 -80.81129 9536 ft 311 kts 88°
2026-05-04 20:17 26.79617 -80.78768 9237 ft 297 kts 88°
2026-05-04 20:17 26.79669 -80.76493 8973 ft 289 kts 95°
2026-05-04 20:17 26.79179 -80.74340 8698 ft 283 kts 111°
2026-05-04 20:17 26.78478 -80.72287 8422 ft 282 kts 112°
2026-05-04 20:18 26.77772 -80.70252 8137 ft 279 kts 112°
2026-05-04 20:18 26.77077 -80.68227 7854 ft 278 kts 111°
2026-05-04 20:18 26.76394 -80.66209 7571 ft 277 kts 111°
2026-05-04 20:18 26.75721 -80.64200 7291 ft 275 kts 111°
2026-05-04 20:19 26.75054 -80.62198 7012 ft 274 kts 110°
2026-05-04 20:19 26.74391 -80.60208 6721 ft 272 kts 110°
2026-05-04 20:19 26.73730 -80.58232 6446 ft 270 kts 111°
2026-05-04 20:19 26.73051 -80.56280 6175 ft 268 kts 111°
2026-05-04 20:20 26.72371 -80.54341 5902 ft 267 kts 111°
2026-05-04 20:20 26.71697 -80.52422 5633 ft 264 kts 111°
2026-05-04 20:20 26.71045 -80.50506 5361 ft 262 kts 105°
2026-05-04 20:20 26.70765 -80.48532 5355 ft 255 kts 95°
2026-05-04 20:21 26.70587 -80.46529 5086 ft 262 kts 95°
2026-05-04 20:21 26.70397 -80.44498 4834 ft 262 kts 95°
2026-05-04 20:21 26.69981 -80.40508 4317 ft 254 kts 96°
2026-05-04 20:22 26.69767 -80.38565 4073 ft 250 kts 96°
2026-05-04 20:22 26.69559 -80.36677 3862 ft 239 kts 95°
2026-05-04 20:22 26.69407 -80.34865 3610 ft 228 kts 92°
2026-05-04 20:22 26.69311 -80.33133 3387 ft 218 kts 91°
2026-05-04 20:23 26.69235 -80.31477 3190 ft 207 kts 91°
2026-05-04 20:23 26.69165 -80.29917 3052 ft 194 kts 90°
2026-05-04 20:23 26.69099 -80.28437 3001 ft 188 kts 90°
2026-05-04 20:23 26.69035 -80.26978 2867 ft 190 kts 90°
2026-05-04 20:24 26.68969 -80.25509 2627 ft 187 kts 90°
2026-05-04 20:24 26.68905 -80.24103 2382 ft 178 kts 90°
2026-05-04 20:24 26.68846 -80.22772 2172 ft 166 kts 90°
2026-05-04 20:24 26.68791 -80.21550 1990 ft 147 kts 90°
2026-05-04 20:25 26.68743 -80.20458 1769 ft 134 kts 89°
2026-05-04 20:25 26.68698 -80.19444 1593 ft 129 kts 89°
2026-05-04 20:25 26.68655 -80.18431 1429 ft 132 kts 89°
2026-05-04 20:25 26.68609 -80.17406 1264 ft 132 kts 89°
2026-05-04 20:26 26.68563 -80.16387 1082 ft 130 kts 89°
2026-05-04 20:26 26.68520 -80.15376 947 ft 131 kts 89°
2026-05-04 20:26 26.68472 -80.14348 788 ft 134 kts 90°
2026-05-04 20:26 26.68419 -80.13299 581 ft 136 kts 90°
2026-05-04 20:27 26.68380 -80.12250 387 ft 134 kts 90°
2026-05-04 20:27 26.68337 -80.11219 200 ft 131 kts 90°
2026-05-04 20:27 26.68294 -80.10218 29 ft 126 kts 90°
2026-05-04 20:27 26.68259 -80.09393 21 ft 78 kts 92°
2026-05-04 20:28 26.68240 -80.08982 21 ft 39 kts 92°
2026-05-04 20:28 26.68273 -80.08848 22 ft 13 kts 23°
2026-05-04 20:28 26.68336 -80.08861 22 ft 8 kts 315°
2026-05-04 20:28 26.68349 -80.08926 21 ft 10 kts 272°
2026-05-04 20:29 26.68353 -80.09028 21 ft 15 kts 273°
2026-05-04 20:29 26.68358 -80.09143 21 ft 15 kts 272°
2026-05-04 20:29 26.68362 -80.09263 21 ft 17 kts 272°
2026-05-04 20:29 26.68420 -80.09377 22 ft 17 kts 332°
2026-05-04 20:30 26.68521 -80.09329 21 ft 16 kts 29°
2026-05-04 20:30 26.68608 -80.09316 21 ft 6 kts 356°
2026-05-04 20:30 26.68626 -80.09317 21 ft 1 kts 357°
2026-05-04 20:30 26.68627 -80.09317 21 ft 0 kts 357°